Regional Weather Roundup
Issued by NWS

Home | Current Version | Previous Version | Text Only | Print | Product List | Glossary On
Versions: 1 2 3 4 5 6 7 8 9 10 11 12 13 14 15 16 17 18 19 20 21 22 23 24 25 26 27 28 29 30 31 32 33 34 35 36 37 38 39 40 41 42 43 44 45 46 47 48 49 50
000
ASUS45 KTFX 060010
RWRMT
MONTANA REGIONAL WEATHER ROUNDUP
NATIONAL WEATHER SERVICE GREAT FALLS MT
500 PM MST FRI FEB 05 2016

NOTE: "FAIR" INDICATES FEW OR NO CLOUDS BELOW 12000 FEET WITH NO
SIGNIFICANT WEATHER AND/OR OBSTRUCTIONS TO VISIBILITY.

MTZ001>007-043-060100-
WEST OF THE DIVIDE

CITY           SKY/WX    TMP DP  RH WIND       PRES   REMARKS
KALISPELL      CLOUDY    39  30  70 S7        30.26F
MISSOULA       PTCLDY    37  27  67 CALM      30.30F
BUTTE          CLOUDY    35  20  54 W7        30.26F WCI  29
MULLAN PASS    CLOUDY    30  27  88 S5        30.22F
ANACONDA         N/A     37  21  52 S13       30.26F WCI  29
DEER LODGE       N/A     36  25  64 W5        30.26F
HAMILTON         N/A     45  28  53 SE9       30.28F
LIBBY            N/A     39  30  70 CALM      30.24F
$$

MTZ008-052>055-060100-
SOUTHWEST MONTANA

CITY           SKY/WX    TMP DP  RH WIND       PRES   REMARKS
BOZEMAN        CLOUDY    35  19  52 E6        30.28S WCI  30
DILLON         CLOUDY    30  20  66 S17       30.29F WCI  18
ENNIS          CLEAR     32  16  51 S22G29    30.37S WCI  19
THREE FORKS      N/A     41   1  18 S9        30.23S
TWIN BRIDGES     N/A     32  19  58 SE8       30.26F WCI  25
$$

MTZ009-010-012-014-046-048-049-054-060100-
EAST SLOPES AND CENTRAL MONTANA

CITY           SKY/WX    TMP DP  RH WIND       PRES   REMARKS
CUT BANK       MOCLDY    42  24  49 W36G46    29.98F
GREAT FALLS    CLEAR     44  22  41 SW20G26   30.07F
MALMSTROM AFB  CLEAR     45  24  43 SW26G35   30.08S
HELENA         CLOUDY    41  26  55 NW9       30.20F
CHOTEAU          N/A     46  19  34 W21G29    30.04S
CONRAD           N/A     44  26  49 SW8       30.05R
$$

MTZ011-013-016-021-045-047-050-051-060100-
NORTH CENTRAL MONTANA

CITY           SKY/WX    TMP DP  RH WIND       PRES   REMARKS
HAVRE          CLOUDY    46  27  47 SW15      29.98S
LEWISTOWN      CLEAR     39  25  57 SW16      30.07F WCI  30
N BAR RANCH      N/A     41  19  42 W8        30.08F
CHINOOK          N/A     50  25  37 W18G24    29.97S
$$

MTZ017>020-022>027-061-062-060100-
NORTHEAST MONTANA

CITY           SKY/WX    TMP DP  RH WIND       PRES   REMARKS
GLASGOW        CLOUDY    37  27  67 SW8       30.00F WCI  31
JORDAN           N/A     41  29  62 W5        30.04F
SIDNEY         CLEAR     37  25  60 SW12      30.06S WCI  30
WOLF POINT     CLOUDY    37  26  64 CALM      30.03S
PLENTYWOOD       N/A     36  25  64 S5        29.99F
POPLAR           N/A     39  28  65 S6        30.03F
$$

MTZ028>42-056>058-060100-
SOUTHCENTRAL AND SOUTHEAST MONTANA

CITY           SKY/WX    TMP DP  RH WIND       PRES   REMARKS
BAKER          CLEAR     38  22  52 W10       30.10F WCI  31
BILLINGS       PTCLDY    41  13  31 SW12      30.15R
LIVINGSTON     CLOUDY    41  16  36 SW25G38   30.21S
MILES CITY     CLOUDY    44  23  43 SW12      30.09F
FORSYTH          N/A     46  21  36 W7        30.11F
LAUREL           N/A     40  12  32 S12       30.13F
ROUNDUP          N/A     44  18  35 W20       30.01F
$$

REGIONAL REPORTS...DAKOTAS

CITY           SKY/WX    TMP DP  RH WIND       PRES   REMARKS
WILLISTON      CLEAR     36  25  64 SW5       30.03F
MINOT          CLOUDY    36  21  54 SW7       30.03F WCI  30
DICKINSON      CLEAR     30  21  69 SW7       30.05F WCI  23
BEACH            N/A     36  25  64 SW7       30.10S WCI  30
CROSBY           N/A     32  27  80 SW13      30.01F WCI  22
TIOGA            N/A     28  28 100 SW7       30.06F WCI  21
WATFORD CITY     N/A     34  27  75 S8        30.04F WCI  27
BISMARCK       CLEAR     37  24  59 W7        30.11F WCI  32
GRAND FORKS    PTCLDY    23  16  74 SE5       30.13S
FARGO          CLEAR     25  19  78 SW3       30.14S
BUFFALO SD       N/A     37  21  52 W12       30.07F WCI  29
RAPID CITY     CLEAR     33  23  66 N8        30.17F WCI  26
$$

REGIONAL REPORTS...WYOMING/IDAHO/WASHINGTON

CITY           SKY/WX    TMP DP  RH WIND       PRES   REMARKS
GILLETTE       CLOUDY    30  18  60 SW13      30.18F WCI  20
SHERIDAN       PTCLDY    36  18  48 S3        30.14F
BUFFALO WY     CLOUDY    28  14  55 SW6       30.17F WCI  22
CODY           CLEAR     39  12  33 W23G30    30.17F WCI  29
YELLOWSTONE LA   N/A     18  13  80 VRB5      30.38R
IDAHO FALLS    CLOUDY    19  16  88 N6        30.50F FOG     WCI  11
SALMON         CLOUDY    25  14  63 SE3       30.41F
BOISE          CLEAR     45  35  68 S9        30.46F
SPOKANE        CLOUDY    45  36  70 SE9       30.22F
$$

REGIONAL REPORTS...ALBERTA

CITY           SKY/WX    TMP DP  RH WIND       PRES   REMARKS
EDMONTON       PTCLDY    39  25  56 SW7       29.62F
CALGARY        PTCLDY    48  21  34 W8G22     29.79R
LETHBRIDGE     MOCLDY    46  23  39 W28G38    29.92F
MEDICINE HAT   MOCLDY    46  28  49 SW28      29.86F
CARDSTON         N/A     45  19  36 W22G33      N/A
ONEFOUR          N/A     43  27  52 W13         N/A
$$

REGIONAL REPORTS...SASKATCHEWAN

CITY           SKY/WX    TMP DP  RH WIND       PRES   REMARKS
SWIFT CURRENT  CLEAR     34  27  75 SW12      29.86F WCI  25
REGINA         PTCLDY    30  25  80 S9        29.92F WCI  22
SASKATOON      PTCLDY    25  19  80 S8        29.86F WCI  16
CYPRESS HILLS    N/A     36  23  60 SW6         N/A  WCI  31
VAL MARIE        N/A     34  28  80 SW9         N/A  WCI  26
ROCKGLEN         N/A     28  25  86 SW14        N/A  WCI  17
ASSINIBOIA       N/A     30  25  80 S8          N/A  WCI  23
$$



USA.gov is the U.S. government's official web portal to all federal, state and local government web resources and services.